Santa Ana, CA

9:18 PM PST on November 21, 2019 (GMT -0800)
John Wayne-Orange County

Weather History for KSNA - October, 2019

Change the Weather History Date:

Tuesday, October 22, 2019

  Actual Average Record
Temperature  
Mean Temperature 78 °F 66 °F  
Max Temperature 94 °F 75 °F 99 °F (2008)
Min Temperature 62 °F 58 °F 55 °F (2004)
Degree Days  
Heating Degree Days 0 1  
Month to date heating degree days 0 9  
Since 1 July heating degree days 0 10  
Cooling Degree Days 13 2  
Month to date cooling degree days 131 68  
Year to date cooling degree days 1126 836  
Growing Degree Days 28 (Base 50)    
Moisture  
Dew Point 45 °F    
Average Humidity 35    
Maximum Humidity 52    
Minimum Humidity 17    
Precipitation  
Precipitation 0.00 in 0.03 in 0.01 in (2010)
Month to date precipitation 0.00 0.45  
Year to date precipitation 12.54 9.70  
Sea Level Pressure  
Sea Level Pressure 30.00 in    
Wind  
Wind Speed 2 mph (SW)    
Max Wind Speed 14 mph    
Max Gust Speed 17 mph    
Visibility 10 miles    
Events      
T = Trace of Precipitation, MM = Missing Value Source: NWS Daily Summary

Daily Weather History Graph

Daily Weather History Graph

Search for Another Location

Airport or City:

Astronomy

Oct. 22, 2019 Rise Set
Actual Time 7:01 AM PDT 6:09 PM PDT
Civil Twilight 6:36 AM PDT 6:34 PM PDT
Nautical Twilight 6:07 AM PDT 7:03 PM PDT
Astronomical Twilight 5:38 AM PDT 7:32 PM PDT
Moon 12:40 AM PDT 3:00 PM PDT
Length of Visible Light 11h 58m
Length of Day
11h 07m
Last Quarter, 36% of the Moon is Illuminated
Oct 22
Last Quarter
Oct 27
New
Nov 4
First Quarter
Nov 12
Full
Nov 19
Last Quarter

Hourly Weather History & Observations

Time (PDT) Temp. Dew Point Humidity Pressure Visibility Wind Dir Wind Speed Gust Speed Precip Events Conditions
12:53 AM 68.0 °F 46.0 °F 45% 30.04 in 10.0 mi NNW 3.5 mph - N/A   Clear
1:53 AM 66.9 °F 45.0 °F 45% 30.04 in 10.0 mi Calm Calm - N/A   Clear
2:53 AM 64.9 °F 45.0 °F 48% 30.04 in 10.0 mi SSE 3.5 mph - N/A   Clear
3:53 AM 63.0 °F 45.0 °F 52% 30.02 in 10.0 mi Calm Calm - N/A   Clear
4:53 AM 62.1 °F 44.1 °F 52% 30.03 in 10.0 mi Calm Calm - N/A   Clear
5:53 AM 63.0 °F 44.1 °F 50% 30.03 in 10.0 mi Calm Calm - N/A   Clear
6:53 AM 64.0 °F 43.0 °F 46% 30.04 in 10.0 mi Calm Calm - N/A   Clear
7:53 AM 66.9 °F 43.0 °F 42% 30.05 in 10.0 mi Calm Calm - N/A   Clear
8:53 AM 73.0 °F 44.1 °F 35% 30.06 in 10.0 mi Calm Calm - N/A   Clear
9:53 AM 81.0 °F 41.0 °F 24% 30.06 in 10.0 mi Calm Calm - N/A   Clear
10:53 AM 87.1 °F 44.1 °F 22% 30.05 in 10.0 mi Calm Calm - N/A   Clear
11:53 AM 93.0 °F 42.1 °F 17% 30.03 in 10.0 mi Variable 3.5 mph - N/A   Clear
12:53 PM 91.0 °F 48.0 °F 23% 30.01 in 10.0 mi SSW 10.4 mph - N/A   Clear
1:53 PM 91.0 °F 46.0 °F 21% 29.97 in 10.0 mi WSW 9.2 mph - N/A   Clear
2:53 PM 91.0 °F 42.1 °F 18% 29.96 in 10.0 mi SW 6.9 mph - N/A   Clear
3:53 PM 89.1 °F 45.0 °F 22% 29.95 in 10.0 mi WSW 9.2 mph - N/A   Clear
4:53 PM 88.0 °F 43.0 °F 21% 29.94 in 10.0 mi WSW 4.6 mph - N/A   Clear
5:53 PM 84.0 °F 44.1 °F 25% 29.94 in 10.0 mi Variable 3.5 mph - N/A   Clear
6:53 PM 81.0 °F 48.0 °F 31% 29.95 in 10.0 mi Calm Calm - N/A   Clear
7:53 PM 78.1 °F 48.9 °F 36% 29.96 in 10.0 mi Calm Calm - N/A   Clear
8:53 PM 75.9 °F 50.0 °F 40% 29.95 in 10.0 mi South 3.5 mph - N/A   Clear
9:53 PM 73.9 °F 50.0 °F 43% 29.96 in 10.0 mi Calm Calm - N/A   Clear
10:53 PM 73.0 °F 48.9 °F 42% 29.95 in 10.0 mi Calm Calm - N/A   Clear
11:53 PM 71.1 °F 46.9 °F 42% 29.94 in 10.0 mi Calm Calm - N/A   Clear